FW9150 Weather Reports


time (UTC)temp
C
wind
direction
speed
KPH
gust
KPH
rain 1hr
cm
rain 24hr
cm
rain mn
cm
humidity
%
barometer
mb
20260510013511 18 53 0.0 0.0 0.00 0.00 0.00 61 1021.3
20260510012512 19 45 0.0 0.0 0.00 0.00 0.00 60 1021.4
20260510010511 20 157 0.0 0.0 0.00 0.00 0.00 57 1021.4
20260510005510 20 9 0.0 0.0 0.00 0.00 0.00 57 1021.3
20260510004512 20 180 0.0 0.0 0.00 0.00 0.00 56 1021.4
20260510003513 20 180 0.0 1.6 0.00 0.00 0.00 54 1021.4
20260510002513 20 180 0.0 3.2 0.00 0.00 0.00 54 1021.3
20260510001513 21 22 0.0 0.0 0.00 0.00 0.00 51 1021.4
20260510000514 21 227 0.0 3.2 0.00 0.00 0.00 51 1021.3
20260509235512 21 264 0.0 1.6 0.00 0.00 0.00 51 1021.4
20260509234512 21 161 0.0 4.8 0.00 0.00 0.00 50 1021.5
20260509233612 21 168 4.8 6.4 0.00 0.00 0.00 49 1021.4
20260509232711 21 112 0.0 0.0 0.00 0.00 0.00 48 1021.3
20260509232627 21 128 0.0 3.2 0.00 0.00 0.00 48 1021.4
20260509231711 21 157 0.0 1.6 0.00 0.00 0.00 46 1021.4
20260509230713 21 200 1.6 3.2 0.00 0.00 0.00 46 1021.3
20260509225711 22 247 0.0 1.6 0.00 0.00 0.00 44 1021.4
20260509224713 22 16 0.0 3.2 0.00 0.00 0.00 43 1021.5
20260509223713 22 151 0.0 3.2 0.00 0.00 0.00 42 1021.5
20260509222712 22 270 0.0 1.6 0.00 0.00 0.00 42 1021.7
20260509221711 22 80 0.0 0.0 0.00 0.00 0.00 41 1021.8
20260509215810 22 180 0.0 1.6 0.00 0.00 0.00 41 1021.8
20260509214811 23 326 0.0 4.8 0.00 0.00 0.00 41 1021.8
20260509213812 23 260 0.0 3.2 0.00 0.00 0.00 41 1021.9
20260509211813 23 158 0.0 1.6 0.00 0.00 0.00 42 1022.1
20260509210813 23 163 3.2 8.0 0.00 0.00 0.00 41 1022.0
20260509204810 25 104 0.0 4.8 0.00 0.00 0.00 40 1022.0
20260509202911 26 71 0.0 3.2 0.00 0.00 0.00 37 1022.1
20260509201912 26 157 0.0 1.6 0.00 0.00 0.00 38 1022.1
20260509200911 25 135 0.0 1.6 0.00 0.00 0.00 40 1022.1
20260509200010 25 176 0.0 1.6 0.00 0.00 0.00 41 1022.1
20260509194012 25 186 0.0 1.6 0.00 0.00 0.00 40 1022.2
20260509193011 25 173 1.6 4.8 0.00 0.00 0.00 39 1022.2
20260509192110 25 202 1.6 3.2 0.00 0.00 0.00 38 1022.3
20260509191113 25 172 4.8 8.0 0.00 0.00 0.00 38 1022.4
20260509190111 25 326 0.0 1.6 0.00 0.00 0.00 39 1022.3
20260509185113 25 26 0.0 0.0 0.00 0.00 0.00 37 1022.4
20260509183210 25 204 0.0 0.0 0.00 0.00 0.00 36 1022.4
20260509182211 24 147 0.0 1.6 0.00 0.00 0.00 34 1022.4
20260509181211 24 70 1.6 4.8 0.00 0.00 0.00 33 1022.4
20260509180212 24 230 0.0 4.8 0.00 0.00 0.00 35 1022.4
20260509175310 23 118 0.0 1.6 0.00 0.00 0.00 36 1022.4
20260509174313 23 224 1.6 1.6 0.00 0.00 0.00 37 1022.5
20260509173312 23 284 0.0 3.2 0.00 0.00 0.00 36 1022.3
20260509172326 22 135 1.6 3.2 0.00 0.00 0.00 37 1022.4
20260509171314 22 157 1.6 3.2 0.00 0.00 0.00 35 1022.3
20260509170412 22 157 3.2 3.2 0.00 0.00 0.00 35 1022.4
20260509165412 22 157 1.6 1.6 0.00 0.00 0.00 37 1022.5
20260509164413 21 157 0.0 0.0 0.00 0.00 0.00 40 1022.5
20260509163412 20 202 0.0 0.0 0.00 0.00 0.00 41 1022.6
20260509162411 20 157 0.0 1.6 0.00 0.00 0.00 44 1022.4
20260509161414 18 135 1.6 3.2 0.00 0.00 0.00 48 1022.6
20260509160414 17 135 0.0 3.2 0.00 0.00 0.00 51 1022.6
20260509154412 15 135 0.0 1.6 0.00 0.00 0.00 56 1022.6
20260509152510 14 67 0.0 0.0 0.00 0.00 0.00 64 1022.6
20260509145512 12 67 0.0 0.0 0.00 0.00 0.00 64 1022.6
20260509142710 11 67 0.0 0.0 0.00 0.00 0.00 66 1022.4
20260509140810 10 67 0.0 0.0 0.00 0.00 0.00 64 1022.4
20260509135811 10 67 0.0 0.0 0.00 0.00 0.00 64 1022.2
20260509134910 10 67 0.0 0.0 0.00 0.00 0.00 65 1022.1
20260509133912 10 67 0.0 0.0 0.00 0.00 0.00 65 1022.1
20260509131912 10 67 0.0 0.0 0.00 0.00 0.00 65 1021.9
20260509130911 10 67 0.0 0.0 0.00 0.00 0.00 65 1022.1
20260509125911 10 67 0.0 0.0 0.00 0.00 0.00 66 1022.1
20260509124013 10 67 0.0 0.0 0.00 0.00 0.00 67 1022.1
20260509123110 10 67 0.0 0.0 0.00 0.00 0.00 67 1022.1
20260509121112 10 67 0.0 0.0 0.00 0.00 0.00 68 1022.0
20260509120112 10 67 0.0 0.0 0.00 0.00 0.00 68 1021.9
20260509115210 10 67 0.0 0.0 0.00 0.00 0.00 67 1022.0
20260509114212 10 67 0.0 0.0 0.00 0.00 0.00 70 1021.9
20260509113227 10 67 0.0 0.0 0.00 0.00 0.00 70 1022.1
20260509112210 10 67 0.0 0.0 0.00 0.00 0.00 70 1022.2
20260509111212 10 67 0.0 0.0 0.00 0.00 0.00 70 1022.1
20260509110211 10 67 0.0 0.0 0.00 0.00 0.00 70 1022.1
20260509105211 10 67 0.0 0.0 0.00 0.00 0.00 70 1022.1
20260509104213 10 67 0.0 0.0 0.00 0.00 0.00 70 1022.1
20260509103212 10 67 0.0 0.0 0.00 0.00 0.00 70 1022.2
20260509102212 10 67 0.0 0.0 0.00 0.00 0.00 69 1022.2
20260509101210 10 67 0.0 0.0 0.00 0.00 0.00 70 1022.2
20260509100212 10 67 0.0 0.0 0.00 0.00 0.00 70 1022.3
20260509095310 10 67 0.0 0.0 0.00 0.00 0.00 69 1022.4
20260509094311 10 67 0.0 0.0 0.00 0.00 0.00 69 1022.3
20260509093313 10 67 0.0 0.0 0.00 0.00 0.00 68 1022.5
20260509092312 10 67 0.0 0.0 0.00 0.00 0.00 69 1022.4
20260509091311 10 67 0.0 0.0 0.00 0.00 0.00 69 1022.6
20260509085410 10 67 0.0 0.0 0.00 0.00 0.00 69 1022.4
20260509084510 11 67 0.0 0.0 0.00 0.00 0.00 69 1022.6
20260509083511 11 67 0.0 0.0 0.00 0.00 0.00 68 1022.7
20260509081511 11 67 0.0 0.0 0.00 0.00 0.00 69 1022.7
20260509080512 11 67 0.0 0.0 0.00 0.00 0.00 70 1022.8
20260509075513 11 67 0.0 0.0 0.00 0.00 0.00 70 1022.9
20260509073610 11 67 0.0 0.0 0.00 0.00 0.00 68 1022.8
20260509070713 11 67 0.0 0.0 0.00 0.00 0.00 67 1022.9
20260509065715 11 67 0.0 0.0 0.00 0.00 0.00 68 1022.9
20260509064715 11 67 0.0 0.0 0.00 0.00 0.00 68 1023.0
20260509063716 11 67 0.0 0.0 0.00 0.00 0.00 68 1023.2
20260509062716 11 67 0.0 0.0 0.00 0.00 0.00 69 1023.1
20260509061716 11 67 0.0 0.0 0.00 0.00 0.00 71 1023.1
20260509060714 11 67 0.0 0.0 0.00 0.00 0.00 72 1023.0
20260509055716 11 67 0.0 0.0 0.00 0.00 0.00 72 1023.0
20260509054730 11 67 0.0 0.0 0.00 0.00 0.00 73 1023.2
20260509053816 11 67 0.0 0.0 0.00 0.00 0.00 74 1023.1
20260509052815 11 67 0.0 0.0 0.00 0.00 0.00 74 1023.2
20260509051914 11 67 0.0 0.0 0.00 0.00 0.00 74 1023.0
20260509051813 11 67 0.0 0.0 0.00 0.00 0.00 74 1023.1
20260509050814 11 67 0.0 0.0 0.00 0.00 0.00 73 1023.1
20260509045815 11 67 0.0 0.0 0.00 0.00 0.00 73 1023.0
20260509044814 12 67 0.0 0.0 0.00 0.00 0.00 73 1023.0
20260509043814 12 67 0.0 0.0 0.00 0.00 0.00 72 1023.1
20260509042914 12 67 0.0 0.0 0.00 0.00 0.00 71 1023.2
20260509041917 12 67 0.0 0.0 0.00 0.00 0.00 70 1023.0
20260509040930 12 67 0.0 0.0 0.00 0.00 0.00 70 1023.0
20260509035914 13 67 0.0 0.0 0.00 0.00 0.00 71 1023.1
20260509034113 13 90 0.0 0.0 0.00 0.00 0.00 70 1023.1
20260509033114 13 90 0.0 0.0 0.00 0.00 0.00 69 1023.0
20260509032117 14 90 0.0 0.0 0.00 0.00 0.00 67 1023.0
20260509031214 15 90 0.0 0.0 0.00 0.00 0.00 66 1023.0
20260509030313 15 90 0.0 0.0 0.00 0.00 0.00 64 1023.0
20260509025316 15 90 0.0 0.0 0.00 0.00 0.00 64 1023.0
20260509023414 16 90 0.0 0.0 0.00 0.00 0.00 62 1023.0
20260509022414 16 90 0.0 0.0 0.00 0.00 0.00 60 1022.8
20260509020416 16 90 0.0 0.0 0.00 0.00 0.00 59 1022.9
20260509015416 17 90 0.0 0.0 0.00 0.00 0.00 58 1022.9
20260509014514 17 135 0.0 0.0 0.00 0.00 0.00 57 1022.9